Year,Month,Day,Hour,Minute,Value (Times are PST for temperature in C)
2020,05,27,00,00,10.80
2020,05,27,00,01,10.80
2020,05,27,00,02,10.80
2020,05,27,00,03,10.80
2020,05,27,00,04,10.80
2020,05,27,00,05,10.70
2020,05,27,00,06,10.70
2020,05,27,00,07,10.70
2020,05,27,00,08,10.70
2020,05,27,00,09,10.70
2020,05,27,00,10,10.70
2020,05,27,00,11,10.70
2020,05,27,00,12,10.70
2020,05,27,00,13,10.70
2020,05,27,00,14,10.70
2020,05,27,00,15,10.70
2020,05,27,00,16,10.70
2020,05,27,00,17,10.70
2020,05,27,00,18,10.70
2020,05,27,00,19,10.70
2020,05,27,00,20,10.70
2020,05,27,00,21,10.70
2020,05,27,00,22,10.70
2020,05,27,00,23,10.70
2020,05,27,00,24,10.70
2020,05,27,00,25,10.60
2020,05,27,00,26,10.60
2020,05,27,00,27,10.60
2020,05,27,00,28,10.60
2020,05,27,00,29,10.60
2020,05,27,00,30,10.60
2020,05,27,00,31,10.60
2020,05,27,00,32,10.50
2020,05,27,00,33,10.50
2020,05,27,00,34,10.50
2020,05,27,00,35,10.50
2020,05,27,00,36,10.50
2020,05,27,00,37,10.40
2020,05,27,00,38,10.40
2020,05,27,00,39,10.40
2020,05,27,00,40,10.40
2020,05,27,00,41,10.40
2020,05,27,00,42,10.30
2020,05,27,00,43,10.30
2020,05,27,00,44,10.30
2020,05,27,00,45,10.30
2020,05,27,00,46,10.30
2020,05,27,00,47,10.30
2020,05,27,00,48,10.20
2020,05,27,00,49,10.20
2020,05,27,00,50,10.20
2020,05,27,00,51,10.20
2020,05,27,00,52,10.20
2020,05,27,00,53,10.20
2020,05,27,00,54,10.20
2020,05,27,00,55,10.20
2020,05,27,00,56,10.10
2020,05,27,00,57,10.10
2020,05,27,00,58,10.10
2020,05,27,00,59,10.10
2020,05,27,01,00,10.10
2020,05,27,01,01,10.10
2020,05,27,01,02,10.10
2020,05,27,01,03,10.10
2020,05,27,01,04,10.10
2020,05,27,01,05,10.10
2020,05,27,01,06,10.10
2020,05,27,01,07,10.10
2020,05,27,01,08,10.10
2020,05,27,01,09,10.10
2020,05,27,01,10,10.10
2020,05,27,01,11,10.10
2020,05,27,01,12,10.00
2020,05,27,01,13,10.00
2020,05,27,01,14,10.00
2020,05,27,01,15,10.00
2020,05,27,01,16,9.90
2020,05,27,01,17,9.90
2020,05,27,01,18,9.90
2020,05,27,01,19,9.80
2020,05,27,01,20,9.80
2020,05,27,01,21,9.80
2020,05,27,01,22,9.80
2020,05,27,01,23,9.80
2020,05,27,01,24,9.80
2020,05,27,01,25,9.80
2020,05,27,01,26,9.80
2020,05,27,01,27,9.80
2020,05,27,01,28,9.80
2020,05,27,01,29,9.80
2020,05,27,01,30,9.80
2020,05,27,01,31,9.80
2020,05,27,01,32,9.80
2020,05,27,01,33,9.70
2020,05,27,01,34,9.70
2020,05,27,01,35,9.70
2020,05,27,01,36,9.60
2020,05,27,01,37,9.70
2020,05,27,01,38,9.70
2020,05,27,01,39,9.70
2020,05,27,01,40,9.70
2020,05,27,01,41,9.70
2020,05,27,01,42,9.60
2020,05,27,01,43,9.60
2020,05,27,01,44,9.60
2020,05,27,01,45,9.50
2020,05,27,01,46,9.50
2020,05,27,01,47,9.40
2020,05,27,01,48,9.40
2020,05,27,01,49,9.40
2020,05,27,01,50,9.30
2020,05,27,01,51,9.30
2020,05,27,01,52,9.30
2020,05,27,01,53,9.30
2020,05,27,01,54,9.30
2020,05,27,01,55,9.30
2020,05,27,01,56,9.30
2020,05,27,01,57,9.30
2020,05,27,01,58,9.30
2020,05,27,01,59,9.20
2020,05,27,02,00,9.20
2020,05,27,02,01,9.20
2020,05,27,02,02,9.20
2020,05,27,02,03,9.20
2020,05,27,02,04,9.20
2020,05,27,02,05,9.20
2020,05,27,02,06,9.20
2020,05,27,02,07,9.20
2020,05,27,02,08,9.20
2020,05,27,02,09,9.20
2020,05,27,02,10,9.20
2020,05,27,02,11,9.20
2020,05,27,02,12,9.20
2020,05,27,02,13,9.20
2020,05,27,02,14,9.20
2020,05,27,02,15,9.20
2020,05,27,02,16,9.20
2020,05,27,02,17,9.20
2020,05,27,02,18,9.20
2020,05,27,02,19,9.20
2020,05,27,02,20,9.20
2020,05,27,02,21,9.10
2020,05,27,02,22,9.10
2020,05,27,02,23,9.10
2020,05,27,02,24,9.10
2020,05,27,02,25,9.10
2020,05,27,02,26,9.00
2020,05,27,02,27,9.00
2020,05,27,02,28,9.00
2020,05,27,02,29,9.00
2020,05,27,02,30,8.90
2020,05,27,02,31,8.90
2020,05,27,02,32,8.90
2020,05,27,02,33,8.90
2020,05,27,02,34,8.90
2020,05,27,02,35,8.80
2020,05,27,02,36,8.80
2020,05,27,02,37,8.80
2020,05,27,02,38,8.80
2020,05,27,02,39,8.80
2020,05,27,02,40,8.80
2020,05,27,02,41,8.80
2020,05,27,02,42,8.80
2020,05,27,02,43,8.80
2020,05,27,02,44,8.80
2020,05,27,02,45,8.80
2020,05,27,02,46,8.80
2020,05,27,02,47,8.80
2020,05,27,02,48,8.80
2020,05,27,02,49,8.80
2020,05,27,02,50,8.80
2020,05,27,02,51,8.80
2020,05,27,02,52,8.80
2020,05,27,02,53,8.80
2020,05,27,02,54,8.80
2020,05,27,02,55,8.80
2020,05,27,02,56,8.80
2020,05,27,02,57,8.80
2020,05,27,02,58,8.80
2020,05,27,02,59,8.80
2020,05,27,03,00,8.80
2020,05,27,03,01,8.70
2020,05,27,03,02,8.70
2020,05,27,03,03,8.70
2020,05,27,03,04,8.70
2020,05,27,03,05,8.70
2020,05,27,03,06,8.70
2020,05,27,03,07,8.70
2020,05,27,03,08,8.60
2020,05,27,03,09,8.60
2020,05,27,03,10,8.60
2020,05,27,03,11,8.60
2020,05,27,03,12,8.60
2020,05,27,03,13,8.60
2020,05,27,03,14,8.60
2020,05,27,03,15,8.60
2020,05,27,03,16,8.60
2020,05,27,03,17,8.60
2020,05,27,03,18,8.60
2020,05,27,03,19,8.60
2020,05,27,03,20,8.60
2020,05,27,03,21,8.60
2020,05,27,03,22,8.60
2020,05,27,03,23,8.50
2020,05,27,03,24,8.50
2020,05,27,03,25,8.50
2020,05,27,03,26,8.50
2020,05,27,03,27,8.50
2020,05,27,03,28,8.50
2020,05,27,03,29,8.50
2020,05,27,03,30,8.50
2020,05,27,03,31,8.50
2020,05,27,03,32,8.40
2020,05,27,03,33,8.40
2020,05,27,03,34,8.40
2020,05,27,03,35,8.40
2020,05,27,03,36,8.40
2020,05,27,03,37,8.40
2020,05,27,03,38,8.40
2020,05,27,03,39,8.40
2020,05,27,03,40,8.40
2020,05,27,03,41,8.40
2020,05,27,03,42,8.40
2020,05,27,03,43,8.30
2020,05,27,03,44,8.30
2020,05,27,03,45,8.40
2020,05,27,03,46,8.40
2020,05,27,03,47,8.40
2020,05,27,03,48,8.30
2020,05,27,03,49,8.30
2020,05,27,03,50,8.30
2020,05,27,03,51,8.30
2020,05,27,03,52,8.30
2020,05,27,03,53,8.30
2020,05,27,03,54,8.30
2020,05,27,03,55,8.30
2020,05,27,03,56,8.30
2020,05,27,03,57,8.20
2020,05,27,03,58,8.20
2020,05,27,03,59,8.20
2020,05,27,04,00,8.10
2020,05,27,04,01,8.10
2020,05,27,04,02,8.10
2020,05,27,04,03,8.10
2020,05,27,04,04,8.10
2020,05,27,04,05,8.10
2020,05,27,04,06,8.10
2020,05,27,04,07,8.10
2020,05,27,04,08,8.10
2020,05,27,04,09,8.00
2020,05,27,04,10,8.00
2020,05,27,04,11,8.00
2020,05,27,04,12,8.00
2020,05,27,04,13,8.00
2020,05,27,04,14,8.00
2020,05,27,04,15,8.00
2020,05,27,04,16,8.00
2020,05,27,04,17,8.00
2020,05,27,04,18,8.00
2020,05,27,04,19,7.90
2020,05,27,04,20,7.90
2020,05,27,04,21,7.90
2020,05,27,04,22,7.90
2020,05,27,04,23,7.90
2020,05,27,04,24,7.90
2020,05,27,04,25,7.90
2020,05,27,04,26,7.90
2020,05,27,04,27,7.90
2020,05,27,04,28,7.90
2020,05,27,04,29,7.80
2020,05,27,04,30,7.80
2020,05,27,04,31,7.80
2020,05,27,04,32,7.80
2020,05,27,04,33,7.80
2020,05,27,04,34,7.80
2020,05,27,04,35,7.80
2020,05,27,04,36,7.80
2020,05,27,04,37,7.70
2020,05,27,04,38,7.70
2020,05,27,04,39,7.70
2020,05,27,04,40,7.70
2020,05,27,04,41,7.70
2020,05,27,04,42,7.70
2020,05,27,04,43,7.60
2020,05,27,04,44,7.60
2020,05,27,04,45,7.60
2020,05,27,04,46,7.60
2020,05,27,04,47,7.60
2020,05,27,04,48,7.60
2020,05,27,04,49,7.60
2020,05,27,04,50,7.60
2020,05,27,04,51,7.60
2020,05,27,04,52,7.60
2020,05,27,04,53,7.60
2020,05,27,04,54,7.60
2020,05,27,04,55,7.60
2020,05,27,04,56,7.60
2020,05,27,04,57,7.60
2020,05,27,04,58,7.60
2020,05,27,04,59,7.60
2020,05,27,05,00,7.60
2020,05,27,05,01,7.50
2020,05,27,05,02,7.60
2020,05,27,05,03,7.50
2020,05,27,05,04,7.50
2020,05,27,05,05,7.50
2020,05,27,05,06,7.40
2020,05,27,05,07,7.40
2020,05,27,05,08,7.40
2020,05,27,05,09,7.40
2020,05,27,05,10,7.40
2020,05,27,05,11,7.40
2020,05,27,05,12,7.30
2020,05,27,05,13,7.30
2020,05,27,05,14,7.30
2020,05,27,05,15,7.30
2020,05,27,05,16,7.30
2020,05,27,05,17,7.30
2020,05,27,05,18,7.30
2020,05,27,05,19,7.30
2020,05,27,05,20,7.30
2020,05,27,05,21,7.30
2020,05,27,05,22,7.30
2020,05,27,05,23,7.30
2020,05,27,05,24,7.30
2020,05,27,05,25,7.30
2020,05,27,05,26,7.20
2020,05,27,05,27,7.20
2020,05,27,05,28,7.20
2020,05,27,05,29,7.20
2020,05,27,05,30,7.20
2020,05,27,05,31,7.20
2020,05,27,05,32,7.20
2020,05,27,05,33,7.20
2020,05,27,05,34,7.20
2020,05,27,05,35,7.20
2020,05,27,05,36,7.20
2020,05,27,05,37,7.20
2020,05,27,05,38,7.20
2020,05,27,05,39,7.20
2020,05,27,05,40,7.20
2020,05,27,05,41,7.10
2020,05,27,05,42,7.10
2020,05,27,05,43,7.10
2020,05,27,05,44,7.10
2020,05,27,05,45,7.10
2020,05,27,05,46,7.10
2020,05,27,05,47,7.10
2020,05,27,05,48,7.10
2020,05,27,05,49,7.10
2020,05,27,05,50,7.10
2020,05,27,05,51,7.10
2020,05,27,05,52,7.10
2020,05,27,05,53,7.10
2020,05,27,05,54,7.10
2020,05,27,05,55,7.20
2020,05,27,05,56,7.20
2020,05,27,05,57,7.20
2020,05,27,05,58,7.20
2020,05,27,05,59,7.20
2020,05,27,06,00,7.30
2020,05,27,06,01,7.30
2020,05,27,06,02,7.30
2020,05,27,06,03,7.40
2020,05,27,06,04,7.50
2020,05,27,06,05,7.60
2020,05,27,06,06,7.70
2020,05,27,06,07,7.70
2020,05,27,06,08,7.80
2020,05,27,06,09,7.80
2020,05,27,06,10,7.80
2020,05,27,06,11,7.90
2020,05,27,06,12,7.90
2020,05,27,06,13,7.90
2020,05,27,06,14,7.90
2020,05,27,06,15,7.90
2020,05,27,06,16,8.00
2020,05,27,06,17,8.00
2020,05,27,06,18,8.00
2020,05,27,06,19,8.00
2020,05,27,06,20,8.10
2020,05,27,06,21,8.10
2020,05,27,06,22,8.10
2020,05,27,06,23,8.20
2020,05,27,06,24,8.20
2020,05,27,06,25,8.30
2020,05,27,06,26,8.40
2020,05,27,06,27,8.50
2020,05,27,06,28,8.60
2020,05,27,06,29,8.70
2020,05,27,06,30,8.80
2020,05,27,06,31,8.90
2020,05,27,06,32,9.00
2020,05,27,06,33,9.10
2020,05,27,06,34,9.20
2020,05,27,06,35,9.30
2020,05,27,06,36,9.30
2020,05,27,06,37,9.40
2020,05,27,06,38,9.40
2020,05,27,06,39,9.50
2020,05,27,06,40,9.50
2020,05,27,06,41,9.50
2020,05,27,06,42,9.60
2020,05,27,06,43,9.60
2020,05,27,06,44,9.60
2020,05,27,06,45,9.70
2020,05,27,06,46,9.70
2020,05,27,06,47,9.80
2020,05,27,06,48,9.80
2020,05,27,06,49,9.80
2020,05,27,06,50,9.80
2020,05,27,06,51,9.80
2020,05,27,06,52,9.90
2020,05,27,06,53,9.90
2020,05,27,06,54,10.00
2020,05,27,06,55,10.10
2020,05,27,06,56,10.20
2020,05,27,06,57,10.30
2020,05,27,06,58,10.40
2020,05,27,06,59,10.50
2020,05,27,07,00,10.50
2020,05,27,07,01,10.60
2020,05,27,07,02,10.60
2020,05,27,07,03,10.60
2020,05,27,07,04,10.70
2020,05,27,07,05,10.70
2020,05,27,07,06,10.70
2020,05,27,07,07,10.80
2020,05,27,07,08,10.80
2020,05,27,07,09,10.90
2020,05,27,07,10,10.90
2020,05,27,07,11,11.00
2020,05,27,07,12,11.10
2020,05,27,07,13,11.10
2020,05,27,07,14,11.20
2020,05,27,07,15,11.20
2020,05,27,07,16,11.30
2020,05,27,07,17,11.40
2020,05,27,07,18,11.50
2020,05,27,07,19,11.60
2020,05,27,07,20,11.70
2020,05,27,07,21,11.70
2020,05,27,07,22,11.80
2020,05,27,07,23,11.90
2020,05,27,07,24,11.90
2020,05,27,07,25,12.00
2020,05,27,07,26,12.10
2020,05,27,07,27,12.10
2020,05,27,07,28,12.20
2020,05,27,07,29,12.30
2020,05,27,07,30,12.40
2020,05,27,07,31,12.50
2020,05,27,07,32,12.60
2020,05,27,07,33,12.60
2020,05,27,07,34,12.60
2020,05,27,07,35,12.70
2020,05,27,07,36,12.70
2020,05,27,07,37,12.70
2020,05,27,07,38,12.80
2020,05,27,07,39,12.80
2020,05,27,07,40,12.90
2020,05,27,07,41,13.00
2020,05,27,07,42,13.10
2020,05,27,07,43,13.20
2020,05,27,07,44,13.30
2020,05,27,07,45,13.50
2020,05,27,07,46,13.60
2020,05,27,07,47,13.70
2020,05,27,07,48,13.80
2020,05,27,07,49,13.80
2020,05,27,07,50,13.90
2020,05,27,07,51,14.00
2020,05,27,07,52,14.10
2020,05,27,07,53,14.20
2020,05,27,07,54,14.30
2020,05,27,07,55,14.40
2020,05,27,07,56,14.50
2020,05,27,07,57,14.50
2020,05,27,07,58,14.60
2020,05,27,07,59,14.70
2020,05,27,08,00,14.70
2020,05,27,08,01,14.70
2020,05,27,08,02,14.70
2020,05,27,08,03,14.70
2020,05,27,08,04,14.80
2020,05,27,08,05,14.80
2020,05,27,08,06,14.90
2020,05,27,08,07,14.90
2020,05,27,08,08,14.90
2020,05,27,08,09,14.90
2020,05,27,08,10,14.80
2020,05,27,08,11,14.80
2020,05,27,08,12,14.80
2020,05,27,08,13,14.80
2020,05,27,08,14,14.80
2020,05,27,08,15,14.80
2020,05,27,08,16,14.80
2020,05,27,08,17,14.80
2020,05,27,08,18,14.90
2020,05,27,08,19,14.90
2020,05,27,08,20,14.80
2020,05,27,08,21,14.90
2020,05,27,08,22,14.90
2020,05,27,08,23,14.90
2020,05,27,08,24,14.90
2020,05,27,08,25,14.90
2020,05,27,08,26,14.90
2020,05,27,08,27,15.00
2020,05,27,08,28,15.10
2020,05,27,08,29,15.10
2020,05,27,08,30,15.20
2020,05,27,08,31,15.20
2020,05,27,08,32,15.20
2020,05,27,08,33,15.20
2020,05,27,08,34,15.20
2020,05,27,08,35,15.20
2020,05,27,08,36,15.20
2020,05,27,08,37,15.20
2020,05,27,08,38,15.20
2020,05,27,08,39,15.20
2020,05,27,08,40,15.30
2020,05,27,08,41,15.30
2020,05,27,08,42,15.30
2020,05,27,08,43,15.40
2020,05,27,08,44,15.40
2020,05,27,08,45,15.40
2020,05,27,08,46,15.40
2020,05,27,08,47,15.40
2020,05,27,08,48,15.40
2020,05,27,08,49,15.40
2020,05,27,08,50,15.40
2020,05,27,08,51,15.40
2020,05,27,08,52,15.40
2020,05,27,08,53,15.40
2020,05,27,08,54,15.40
2020,05,27,08,55,15.40
2020,05,27,08,56,15.50
2020,05,27,08,57,15.60
2020,05,27,08,58,15.60
2020,05,27,08,59,15.60
2020,05,27,09,00,15.70
2020,05,27,09,01,15.70
2020,05,27,09,02,15.80
2020,05,27,09,03,15.90
2020,05,27,09,04,16.00
2020,05,27,09,05,16.00
2020,05,27,09,06,16.10
2020,05,27,09,07,16.10
2020,05,27,09,08,16.10
2020,05,27,09,09,16.00
2020,05,27,09,10,16.00
2020,05,27,09,11,15.90
2020,05,27,09,12,15.90
2020,05,27,09,13,15.90
2020,05,27,09,14,15.80
2020,05,27,09,15,15.80
2020,05,27,09,16,15.80
2020,05,27,09,17,15.90
2020,05,27,09,18,15.90
2020,05,27,09,19,15.90
2020,05,27,09,20,15.90
2020,05,27,09,21,15.90
2020,05,27,09,22,15.90
2020,05,27,09,23,15.90
2020,05,27,09,24,15.90
2020,05,27,09,25,15.90
2020,05,27,09,26,15.90
2020,05,27,09,27,15.90
2020,05,27,09,28,15.90
2020,05,27,09,29,15.90
2020,05,27,09,30,16.00
2020,05,27,09,31,16.10
2020,05,27,09,32,16.10
2020,05,27,09,33,16.20
2020,05,27,09,34,16.20
2020,05,27,09,35,16.20
2020,05,27,09,36,16.20
2020,05,27,09,37,16.20
2020,05,27,09,38,16.20
2020,05,27,09,39,16.30
2020,05,27,09,40,16.40
2020,05,27,09,41,16.50
2020,05,27,09,42,16.60
2020,05,27,09,43,16.60
2020,05,27,09,44,16.70
2020,05,27,09,45,16.70
2020,05,27,09,46,16.70
2020,05,27,09,47,16.60
2020,05,27,09,48,16.60
2020,05,27,09,49,16.60
2020,05,27,09,50,16.60
2020,05,27,09,51,16.50
2020,05,27,09,52,16.40
2020,05,27,09,53,16.40
2020,05,27,09,54,16.30
2020,05,27,09,55,16.30
2020,05,27,09,56,16.30
2020,05,27,09,57,16.40
2020,05,27,09,58,16.50
2020,05,27,09,59,16.50
2020,05,27,10,00,16.50
2020,05,27,10,01,16.60
2020,05,27,10,02,16.70
2020,05,27,10,03,16.80
2020,05,27,10,04,16.90
2020,05,27,10,05,17.00
2020,05,27,10,06,17.10
2020,05,27,10,07,17.10
2020,05,27,10,08,17.10
2020,05,27,10,09,17.10
2020,05,27,10,10,17.10
2020,05,27,10,11,17.10
2020,05,27,10,12,17.10
2020,05,27,10,13,17.00
2020,05,27,10,14,16.90
2020,05,27,10,15,16.90
2020,05,27,10,16,16.80
2020,05,27,10,17,16.80
2020,05,27,10,18,16.80
2020,05,27,10,19,16.70
2020,05,27,10,20,16.70
2020,05,27,10,21,16.80
2020,05,27,10,22,16.80
2020,05,27,10,23,17.00
2020,05,27,10,24,17.10
2020,05,27,10,25,17.10
2020,05,27,10,26,17.00
2020,05,27,10,27,16.90
2020,05,27,10,28,17.00
2020,05,27,10,29,17.10
2020,05,27,10,30,17.10
2020,05,27,10,31,17.10
2020,05,27,10,32,17.00
2020,05,27,10,33,16.90
2020,05,27,10,34,16.80
2020,05,27,10,35,16.80
2020,05,27,10,36,16.90
2020,05,27,10,37,16.80
2020,05,27,10,38,16.80
2020,05,27,10,39,16.80
2020,05,27,10,40,16.80
2020,05,27,10,41,16.80
2020,05,27,10,42,16.80
2020,05,27,10,43,16.80
2020,05,27,10,44,16.80
2020,05,27,10,45,16.80
2020,05,27,10,46,17.00
2020,05,27,10,47,17.00
2020,05,27,10,48,16.90
2020,05,27,10,49,16.90
2020,05,27,10,50,16.80
2020,05,27,10,51,16.70
2020,05,27,10,52,16.80
2020,05,27,10,53,16.90
2020,05,27,10,54,16.80
2020,05,27,10,55,16.70
2020,05,27,10,56,16.80
2020,05,27,10,57,16.80
2020,05,27,10,58,16.80
2020,05,27,10,59,16.70
2020,05,27,11,00,16.70
2020,05,27,11,01,16.70
2020,05,27,11,02,16.80
2020,05,27,11,03,16.80
2020,05,27,11,04,16.80
2020,05,27,11,05,16.90
2020,05,27,11,06,16.90
2020,05,27,11,07,16.90
2020,05,27,11,08,17.00
2020,05,27,11,09,17.10
2020,05,27,11,10,17.00
2020,05,27,11,11,17.10
2020,05,27,11,12,17.10
2020,05,27,11,13,17.10
2020,05,27,11,14,17.20
2020,05,27,11,15,17.30
2020,05,27,11,16,17.40
2020,05,27,11,17,17.40
2020,05,27,11,18,17.50
2020,05,27,11,19,17.50
2020,05,27,11,20,17.40
2020,05,27,11,21,17.30
2020,05,27,11,22,17.30
2020,05,27,11,23,17.20
2020,05,27,11,24,17.20
2020,05,27,11,25,17.20
2020,05,27,11,26,17.20
2020,05,27,11,27,17.10
2020,05,27,11,28,17.10
2020,05,27,11,29,17.20
2020,05,27,11,30,17.30
2020,05,27,11,31,17.40
2020,05,27,11,32,17.40
2020,05,27,11,33,17.40
2020,05,27,11,34,17.40
2020,05,27,11,35,17.40
2020,05,27,11,36,17.40
2020,05,27,11,37,17.30
2020,05,27,11,38,17.30
2020,05,27,11,39,17.30
2020,05,27,11,40,17.40
2020,05,27,11,41,17.50
2020,05,27,11,42,17.60
2020,05,27,11,43,17.60
2020,05,27,11,44,17.70
2020,05,27,11,45,17.70
2020,05,27,11,46,17.60
2020,05,27,11,47,17.60
2020,05,27,11,48,17.60
2020,05,27,11,49,17.60
2020,05,27,11,50,17.50
2020,05,27,11,51,17.40
2020,05,27,11,52,17.40
2020,05,27,11,53,17.40
2020,05,27,11,54,17.40
2020,05,27,11,55,17.50
2020,05,27,11,56,17.50
2020,05,27,11,57,17.60
2020,05,27,11,58,17.60
2020,05,27,11,59,17.70
2020,05,27,12,00,17.80
2020,05,27,12,01,17.90
2020,05,27,12,02,18.10
2020,05,27,12,03,18.00
2020,05,27,12,04,17.90
2020,05,27,12,05,17.90
2020,05,27,12,06,17.80
2020,05,27,12,07,17.90
2020,05,27,12,08,18.00
2020,05,27,12,09,18.00
2020,05,27,12,10,17.90
2020,05,27,12,11,17.80
2020,05,27,12,12,17.90
2020,05,27,12,13,17.90
2020,05,27,12,14,17.90
2020,05,27,12,15,17.80
2020,05,27,12,16,17.80
2020,05,27,12,17,17.80
2020,05,27,12,18,17.80
2020,05,27,12,19,17.90
2020,05,27,12,20,17.90
2020,05,27,12,21,18.00
2020,05,27,12,22,18.10
2020,05,27,12,23,18.20
2020,05,27,12,24,18.20
2020,05,27,12,25,18.30
2020,05,27,12,26,18.40
2020,05,27,12,27,18.60
2020,05,27,12,28,18.70
2020,05,27,12,29,18.70
2020,05,27,12,30,18.80
2020,05,27,12,31,18.80
2020,05,27,12,32,18.80
2020,05,27,12,33,18.90
2020,05,27,12,34,19.00
2020,05,27,12,35,19.10
2020,05,27,12,36,19.10
2020,05,27,12,37,19.20
2020,05,27,12,38,19.20
2020,05,27,12,39,19.10
2020,05,27,12,40,19.10
2020,05,27,12,41,19.00
2020,05,27,12,42,19.00
2020,05,27,12,43,19.00
2020,05,27,12,44,19.00
2020,05,27,12,45,19.10
2020,05,27,12,46,19.10
2020,05,27,12,47,19.10
2020,05,27,12,48,19.00
2020,05,27,12,49,18.80
2020,05,27,12,50,18.80
2020,05,27,12,51,18.90
2020,05,27,12,52,18.90
2020,05,27,12,53,18.80
2020,05,27,12,54,18.60
2020,05,27,12,55,18.40
2020,05,27,12,56,18.30
2020,05,27,12,57,18.20
2020,05,27,12,58,18.20
2020,05,27,12,59,18.20
2020,05,27,13,00,18.30
2020,05,27,13,01,18.50
2020,05,27,13,02,18.60
2020,05,27,13,03,18.80
2020,05,27,13,04,18.80
2020,05,27,13,05,18.90
2020,05,27,13,06,18.80
2020,05,27,13,07,18.80
2020,05,27,13,08,18.80
2020,05,27,13,09,18.80
2020,05,27,13,10,18.80
2020,05,27,13,11,18.80
2020,05,27,13,12,18.70
2020,05,27,13,13,18.60
2020,05,27,13,14,18.50
2020,05,27,13,15,18.50
2020,05,27,13,16,18.60
2020,05,27,13,17,18.60
2020,05,27,13,18,18.50
2020,05,27,13,19,18.60
2020,05,27,13,20,18.50
2020,05,27,13,21,18.50
2020,05,27,13,22,18.50
2020,05,27,13,23,18.60
2020,05,27,13,24,18.80
2020,05,27,13,25,18.90
2020,05,27,13,26,19.00
2020,05,27,13,27,19.20
2020,05,27,13,28,19.30
2020,05,27,13,29,19.50
2020,05,27,13,30,19.70
2020,05,27,13,31,19.70
2020,05,27,13,32,19.70
2020,05,27,13,33,19.70
2020,05,27,13,34,19.80
2020,05,27,13,35,19.80
2020,05,27,13,36,19.60
2020,05,27,13,37,19.50
2020,05,27,13,38,19.40
2020,05,27,13,39,19.30
2020,05,27,13,40,19.50
2020,05,27,13,41,19.60
2020,05,27,13,42,19.80
2020,05,27,13,43,19.90
2020,05,27,13,44,19.70
2020,05,27,13,45,19.60
2020,05,27,13,46,19.50
2020,05,27,13,47,19.60
2020,05,27,13,48,19.70
2020,05,27,13,49,19.90
2020,05,27,13,50,20.10
2020,05,27,13,51,19.90
2020,05,27,13,52,19.70
2020,05,27,13,53,19.50
2020,05,27,13,54,19.50
2020,05,27,13,55,19.40
2020,05,27,13,56,19.40
2020,05,27,13,57,19.50
2020,05,27,13,58,19.50
2020,05,27,13,59,19.40
2020,05,27,14,00,19.40
2020,05,27,14,01,19.30
2020,05,27,14,02,19.20
2020,05,27,14,03,19.10
2020,05,27,14,04,19.20
2020,05,27,14,05,19.30
2020,05,27,14,06,19.40
2020,05,27,14,07,19.60
2020,05,27,14,08,19.60
2020,05,27,14,09,19.70
2020,05,27,14,10,19.80
2020,05,27,14,11,19.80
2020,05,27,14,12,19.80
2020,05,27,14,13,19.80
2020,05,27,14,14,19.80
2020,05,27,14,15,19.80
2020,05,27,14,16,19.80
2020,05,27,14,17,19.80
2020,05,27,14,18,19.80
2020,05,27,14,19,19.80
2020,05,27,14,20,19.70
2020,05,27,14,21,19.60
2020,05,27,14,22,19.60
2020,05,27,14,23,19.70
2020,05,27,14,24,19.80
2020,05,27,14,25,19.90
2020,05,27,14,26,19.80
2020,05,27,14,27,19.90
2020,05,27,14,28,19.90
2020,05,27,14,29,20.00
2020,05,27,14,30,20.00
2020,05,27,14,31,20.10
2020,05,27,14,32,20.10
2020,05,27,14,33,20.10
2020,05,27,14,34,20.10
2020,05,27,14,35,20.10
2020,05,27,14,36,20.20
2020,05,27,14,37,20.20
2020,05,27,14,38,20.10
2020,05,27,14,39,20.10
2020,05,27,14,40,20.20
2020,05,27,14,41,20.30
2020,05,27,14,42,20.40
2020,05,27,14,43,20.50
2020,05,27,14,44,20.50
2020,05,27,14,45,20.50
2020,05,27,14,46,20.50
2020,05,27,14,47,20.50
2020,05,27,14,48,20.40
2020,05,27,14,49,20.40
2020,05,27,14,50,20.30
2020,05,27,14,51,20.30
2020,05,27,14,52,20.30
2020,05,27,14,53,20.40
2020,05,27,14,54,20.50
2020,05,27,14,55,20.70
2020,05,27,14,56,20.70
2020,05,27,14,57,20.70
2020,05,27,14,58,20.80
2020,05,27,14,59,20.80
2020,05,27,15,00,20.90
2020,05,27,15,01,21.00
2020,05,27,15,02,21.10
2020,05,27,15,03,21.20
2020,05,27,15,04,21.20
2020,05,27,15,05,21.10
2020,05,27,15,06,21.10
2020,05,27,15,07,21.10
2020,05,27,15,08,21.20
2020,05,27,15,09,21.10
2020,05,27,15,10,21.00
2020,05,27,15,11,21.00
2020,05,27,15,12,21.00
2020,05,27,15,13,21.00
2020,05,27,15,14,21.00
2020,05,27,15,15,20.90
2020,05,27,15,16,20.90
2020,05,27,15,17,20.90
2020,05,27,15,18,21.00
2020,05,27,15,19,21.10
2020,05,27,15,20,21.20
2020,05,27,15,21,21.40
2020,05,27,15,22,21.60
2020,05,27,15,23,21.70
2020,05,27,15,24,21.80
2020,05,27,15,25,21.90
2020,05,27,15,26,22.00
2020,05,27,15,27,22.00
2020,05,27,15,28,21.90
2020,05,27,15,29,21.90
2020,05,27,15,30,21.90
2020,05,27,15,31,22.00
2020,05,27,15,32,22.20
2020,05,27,15,33,22.30
2020,05,27,15,34,22.40
2020,05,27,15,35,22.50
2020,05,27,15,36,22.50
2020,05,27,15,37,22.50
2020,05,27,15,38,22.60
2020,05,27,15,39,22.60
2020,05,27,15,40,22.60
2020,05,27,15,41,22.60
2020,05,27,15,42,22.60
2020,05,27,15,43,22.60
2020,05,27,15,44,22.60
2020,05,27,15,45,22.60
2020,05,27,15,46,22.70
2020,05,27,15,47,22.70
2020,05,27,15,48,22.60
2020,05,27,15,49,22.60
2020,05,27,15,50,22.60
2020,05,27,15,51,22.70
2020,05,27,15,52,22.70
2020,05,27,15,53,22.60
2020,05,27,15,54,22.50
2020,05,27,15,55,22.50
2020,05,27,15,56,22.40
2020,05,27,15,57,22.40
2020,05,27,15,58,22.40
2020,05,27,15,59,22.40
2020,05,27,16,00,22.40
2020,05,27,16,01,22.40
2020,05,27,16,02,22.30
2020,05,27,16,03,22.20
2020,05,27,16,04,22.10
2020,05,27,16,05,22.00
2020,05,27,16,06,22.00
2020,05,27,16,07,21.90
2020,05,27,16,08,21.90
2020,05,27,16,09,21.90
2020,05,27,16,10,21.90
2020,05,27,16,11,22.00
2020,05,27,16,12,22.10
2020,05,27,16,13,22.10
2020,05,27,16,14,22.10
2020,05,27,16,15,22.00
2020,05,27,16,16,21.90
2020,05,27,16,17,21.90
2020,05,27,16,18,21.80
2020,05,27,16,19,21.80
2020,05,27,16,20,21.70
2020,05,27,16,21,21.80
2020,05,27,16,22,21.80
2020,05,27,16,23,21.80
2020,05,27,16,24,21.80
2020,05,27,16,25,21.80
2020,05,27,16,26,21.80
2020,05,27,16,27,21.90
2020,05,27,16,28,21.90
2020,05,27,16,29,21.90
2020,05,27,16,30,22.00
2020,05,27,16,31,22.00
2020,05,27,16,32,22.10
2020,05,27,16,33,22.00
2020,05,27,16,34,22.00
2020,05,27,16,35,22.00
2020,05,27,16,36,21.90
2020,05,27,16,37,21.90
2020,05,27,16,38,21.90
2020,05,27,16,39,22.00
2020,05,27,16,40,21.90
2020,05,27,16,41,22.00
2020,05,27,16,42,22.10
2020,05,27,16,43,22.20
2020,05,27,16,44,22.30
2020,05,27,16,45,22.30
2020,05,27,16,46,22.20
2020,05,27,16,47,22.10
2020,05,27,16,48,22.00
2020,05,27,16,49,22.00
2020,05,27,16,50,22.00
2020,05,27,16,51,22.10
2020,05,27,16,52,22.20
2020,05,27,16,53,22.20
2020,05,27,16,54,22.20
2020,05,27,16,55,22.20
2020,05,27,16,56,22.20
2020,05,27,16,57,22.10
2020,05,27,16,58,22.10
2020,05,27,16,59,22.10
2020,05,27,17,00,22.20
2020,05,27,17,01,22.30
2020,05,27,17,02,22.40
2020,05,27,17,03,22.50
2020,05,27,17,04,22.60
2020,05,27,17,05,22.50
2020,05,27,17,06,22.40
2020,05,27,17,07,22.40
2020,05,27,17,08,22.40
2020,05,27,17,09,22.30
2020,05,27,17,10,22.20
2020,05,27,17,11,22.10
2020,05,27,17,12,22.10
2020,05,27,17,13,22.20
2020,05,27,17,14,22.20
2020,05,27,17,15,22.20
2020,05,27,17,16,22.20
2020,05,27,17,17,22.20
2020,05,27,17,18,22.10
2020,05,27,17,19,22.10
2020,05,27,17,20,22.00
2020,05,27,17,21,22.00
2020,05,27,17,22,22.10
2020,05,27,17,23,22.10
2020,05,27,17,24,22.20
2020,05,27,17,25,22.20
2020,05,27,17,26,22.10
2020,05,27,17,27,22.00
2020,05,27,17,28,21.90
2020,05,27,17,29,22.00
2020,05,27,17,30,22.00
2020,05,27,17,31,22.10
2020,05,27,17,32,22.20
2020,05,27,17,33,22.20
2020,05,27,17,34,22.30